Regional Weather Roundup
Issued by NWS Newport/Morehead, NC

Current Version | Previous Version | Graphics & Text | Print | Product List | Glossary Off
Versions: 1 2 3 4 5 6 7 8 9 10 11 12 13 14 15 16 17 18 19 20 21 22 23 24 25 26 27 28 29 30 31 32 33 34 35 36 37 38 39 40 41 42 43 44 45 46 47 48 49 50

000
ASUS42 KMHX 022113
RWRMHX
WEATHER ROUNDUP FOR EASTERN NORTH CAROLINA
NATIONAL WEATHER SERVICE NEWPORT/MOREHEAD CITY NC
500 PM EDT TUE JUN 02 2015

NOTE: "FAIR" INDICATES FEW OR NO CLOUDS BELOW 12,000 FEET
WITH NO SIGNIFICANT WEATHER AND/OR OBSTRUCTIONS TO VISIBILITY

NCZ015>017-031-032-045>047-102-103-022200-
NORTH COAST

CITY           SKY/WX    TMP DP  RH WIND       PRES   REMARKS
EDENTON        RAIN      71  68  90 SE5       30.00R
ELIZABETH CITY LGT RAIN  71  68  90 NE5       30.00S
KITTY HAWK       N/A     70  68  95 NW5       30.01R
MANTEO         LGT RAIN  70  67  91 NW8       30.03R

$$

NCZ045>047-081-094-103-104-022200-
CENTRAL COAST

CITY           SKY/WX    TMP DP  RH WIND       PRES   REMARKS
FRISCO         MOSUNNY   81  69  67 VRB6      29.99F
SWANQUARTER      N/A     72 N/A N/A NW3       29.97S

$$

NCZ095-097-098-100-101-022200-
SOUTHERN COAST

CITY           SKY/WX    TMP DP  RH WIND       PRES   REMARKS
BEAUFORT       PTSUNNY   78  70  76 W5        29.99S
CEDAR ISLAND     N/A     77 N/A N/A W14G21    30.03S
JACKSONVILLE   PTSUNNY   78  68  71 E8        29.98S THUNDER
PINEY ISLAND   MOCLDY   N/A N/A N/A N13       29.99F
WILMINGTON     CLOUDY    77  68  73 W6        29.97F


$$

NCZ011>013-027>030-043-044-078>080-089-090>093-098-022200-
COASTAL PLAIN

CITY           SKY/WX    TMP DP  RH WIND       PRES   REMARKS
AHOSKIE        LGT RAIN  70  66  88 NE7       29.98R
CLINTON        CLOUDY    71  70  96 CALM      29.98S
ELIZABETHTOWN  CLOUDY    74  70  86 S3        29.97S
GOLDSBORO      NOT AVBL
GREENVILLE     CLOUDY    75  72  88 S6        30.00S
HAVELOCK       CLOUDY    75  66  73 N3        30.01S
KENANSVILLE    CLOUDY    71  68  91 CALM      30.00R
KINSTON        CLOUDY    73  68  83 E5        29.99S
NEW BERN       LGT RAIN  73  70  90 CALM      30.01S
RICHLANDS      PTSUNNY   73  68  83 CALM      29.99S
ROCKY MOUNT    PTSUNNY   80  68  66 E5        29.97S
WASHINGTON     LGT RAIN  72  69  91 CALM      29.99S
WHITEVILLE     CLOUDY    75  68  77 S6        29.96S

$$

AMZ130-135-150-152-154-156-158-170-250-252-270-ANZ085-086-088-633-658-670-022200-
MARINE OBSERVATIONS

STATION/POSITION TIME  TEMP    WIND        PRES    WAVE   SWELL
                       AIR SEA DIR/SP/G            HT/PER HT/PER
                 (UTC) (F)     (DEG/KT/KT) (MB)    (FT/S) (FT/S)
CHESAPEAKE LIGHT 2000   68     330/  8/  8 1016.9
64 E VA BEACH    2050   74 73  160/  4/  4 1015.4    3/ 8   3/ 8
DUCK             2000   68 56  330/ 21/ 25 1014.5
2 E DUCK         2011      65                N/A     3/ 8
OREGON INLET     2000   79 82  190/ 14/ 18 1015.4
13E OREGON INLT  2100      77                N/A     3/ 8
HATTERAS CG      2000   81 78  200/  7/ 13 1015.5
DIAMOND BUOY     2050   79 82  220/  8/ 10 1015.6    2/ 8   2/ 8
CAPE LOOKOUT     2100   79     230/  4/  6 1015.2
BEAUFORT LAB     2000   79 80  200/  9/ 11 1014.8
30 SE NEW RVR IN NOT AVBL
27 SE WRIGHTSVLE 2000      78  190/  8/  8   N/A
5 SE WRIGHTSVLE  2008   78 79  210/ 14/ 16 1014.9
225 S CAPE HAT   2050   78 80  180/  8/  8 1016.2    3/ 8   3/ 8
41 SE CHARLESTON 2050   79 81  160/  8/ 10 1014.3    2/ 8   2/ 8

$$



USA.gov is the U.S. government's official web portal to all federal, state and local government web resources and services.